| time (UTC) | temp F | wind direction | speed MPH | gust MPH | rain 1hr in | rain 24hr in | rain mn in | humidity % | barometer mb |
| 20260831004605 | 73 | 0 | 0.0 | 0.0 | 0.00 | 0.00 | 0.00 | 87 | 1020.9 |
| 20260831004046 | 73 | 0 | 0.0 | 0.0 | 0.00 | 0.00 | 0.00 | 87 | 1020.9 |
| 20260831003548 | 73 | 0 | 0.0 | 0.0 | 0.00 | 0.00 | 0.00 | 86 | 1020.9 |
| 20260831003106 | 74 | 0 | 0.0 | 0.0 | 0.00 | 0.00 | 0.00 | 86 | 1020.8 |
| 20260831002545 | 74 | 0 | 0.0 | 0.0 | 0.00 | 0.00 | 0.00 | 86 | 1020.8 |
| 20260831002045 | 74 | 0 | 0.0 | 0.0 | 0.00 | 0.00 | 0.00 | 85 | 1020.8 |
| 20260831001556 | 75 | 0 | 0.0 | 0.0 | 0.00 | 0.00 | 0.00 | 84 | 1020.8 |
| 20260831001048 | 75 | 0 | 0.0 | 0.0 | 0.00 | 0.00 | 0.00 | 83 | 1021.0 |
| 20260831000546 | 76 | 0 | 0.0 | 0.0 | 0.00 | 0.00 | 0.00 | 82 | 1020.9 |
| 20260831000056 | 76 | 0 | 0.0 | 0.0 | 0.00 | 0.00 | 0.00 | 81 | 1020.9 |
| 20260830235549 | 77 | 0 | 0.0 | 0.0 | 0.00 | 0.00 | 0.00 | 81 | 1021.0 |
| 20260830235048 | 77 | 0 | 0.0 | 0.0 | 0.00 | 0.00 | 0.00 | 81 | 1020.9 |
| 20260830234604 | 78 | 0 | 0.0 | 0.0 | 0.00 | 0.00 | 0.00 | 79 | 1020.9 |
| 20260830234045 | 78 | 0 | 0.0 | 0.0 | 0.00 | 0.00 | 0.00 | 78 | 1020.9 |
| 20260830233545 | 79 | 0 | 0.0 | 1.0 | 0.00 | 0.00 | 0.00 | 77 | 1021.0 |
| 20260830233055 | 79 | 0 | 0.0 | 1.0 | 0.00 | 0.00 | 0.00 | 77 | 1020.9 |
| 20260830232550 | 79 | 200 | 0.0 | 1.0 | 0.00 | 0.00 | 0.00 | 76 | 1021.0 |
| 20260830232046 | 80 | 0 | 0.0 | 3.0 | 0.00 | 0.00 | 0.00 | 77 | 1020.9 |
| 20260830231602 | 80 | 0 | 1.0 | 3.0 | 0.00 | 0.00 | 0.00 | 75 | 1021.0 |
| 20260830231044 | 80 | 0 | 0.0 | 0.0 | 0.00 | 0.00 | 0.00 | 75 | 1021.0 |
| 20260830230548 | 81 | 0 | 0.0 | 0.0 | 0.00 | 0.00 | 0.00 | 75 | 1020.9 |
| 20260830230055 | 81 | 0 | 0.0 | 0.0 | 0.00 | 0.00 | 0.00 | 74 | 1020.9 |
| 20260830225545 | 82 | 0 | 0.0 | 0.0 | 0.00 | 0.00 | 0.00 | 71 | 1020.9 |
| 20260830225045 | 83 | 0 | 0.0 | 0.0 | 0.00 | 0.00 | 0.00 | 71 | 1020.9 |
| 20260830224603 | 84 | 0 | 0.0 | 1.0 | 0.00 | 0.00 | 0.00 | 69 | 1020.9 |
| 20260830224045 | 85 | 0 | 0.0 | 1.0 | 0.00 | 0.00 | 0.00 | 66 | 1020.9 |
| 20260830223545 | 85 | 0 | 0.0 | 2.0 | 0.00 | 0.00 | 0.00 | 66 | 1020.8 |
| 20260830223102 | 86 | 0 | 1.0 | 2.0 | 0.00 | 0.00 | 0.00 | 66 | 1020.8 |
| 20260830222545 | 87 | 101 | 0.0 | 2.0 | 0.00 | 0.00 | 0.00 | 64 | 1020.9 |
| 20260830222045 | 86 | 0 | 0.0 | 2.0 | 0.00 | 0.00 | 0.00 | 66 | 1020.7 |
| 20260830221603 | 86 | 128 | 0.0 | 2.0 | 0.00 | 0.00 | 0.00 | 63 | 1020.7 |
| 20260830221045 | 86 | 107 | 0.0 | 2.0 | 0.00 | 0.00 | 0.00 | 63 | 1020.7 |
| 20260830220545 | 86 | 0 | 0.0 | 2.0 | 0.00 | 0.00 | 0.00 | 63 | 1020.8 |
| 20260830220057 | 86 | 103 | 0.0 | 3.0 | 0.00 | 0.00 | 0.00 | 63 | 1020.8 |
| 20260830215544 | 86 | 100 | 0.0 | 3.0 | 0.00 | 0.00 | 0.00 | 62 | 1020.8 |
| 20260830215046 | 87 | 0 | 1.0 | 3.0 | 0.00 | 0.00 | 0.00 | 60 | 1020.8 |
| 20260830214602 | 88 | 0 | 0.0 | 0.0 | 0.00 | 0.00 | 0.00 | 62 | 1020.7 |
| 20260830214045 | 87 | 0 | 0.0 | 3.0 | 0.00 | 0.00 | 0.00 | 62 | 1020.7 |
| 20260830213545 | 86 | 0 | 0.0 | 3.0 | 0.00 | 0.00 | 0.00 | 62 | 1020.7 |
| 20260830213106 | 86 | 85 | 0.0 | 3.0 | 0.00 | 0.00 | 0.00 | 65 | 1020.7 |
| 20260830212545 | 85 | 0 | 1.0 | 5.0 | 0.00 | 0.00 | 0.00 | 63 | 1020.8 |
| 20260830212045 | 86 | 138 | 1.0 | 5.0 | 0.00 | 0.00 | 0.00 | 64 | 1020.7 |
| 20260830211558 | 86 | 83 | 1.0 | 3.0 | 0.00 | 0.00 | 0.00 | 62 | 1020.7 |
| 20260830211045 | 86 | 132 | 1.0 | 3.0 | 0.00 | 0.00 | 0.00 | 64 | 1020.6 |
| 20260830210545 | 87 | 296 | 0.0 | 4.0 | 0.00 | 0.00 | 0.00 | 63 | 1020.8 |
| 20260830210103 | 86 | 71 | 2.0 | 4.0 | 0.00 | 0.00 | 0.00 | 64 | 1020.9 |
| 20260830205545 | 86 | 105 | 1.0 | 5.0 | 0.00 | 0.00 | 0.00 | 62 | 1020.9 |
| 20260830205045 | 86 | 112 | 0.0 | 5.0 | 0.00 | 0.00 | 0.00 | 63 | 1021.0 |
| 20260830204605 | 87 | 98 | 2.0 | 5.0 | 0.00 | 0.00 | 0.00 | 61 | 1020.9 |
| 20260830204045 | 86 | 0 | 0.0 | 4.0 | 0.00 | 0.00 | 0.00 | 64 | 1020.9 |
| 20260830203545 | 86 | 194 | 1.0 | 4.0 | 0.00 | 0.00 | 0.00 | 62 | 1020.9 |
| 20260830203102 | 86 | 199 | 1.0 | 4.0 | 0.00 | 0.00 | 0.00 | 63 | 1020.9 |
| 20260830202546 | 86 | 28 | 0.0 | 4.0 | 0.00 | 0.00 | 0.00 | 63 | 1021.1 |
| 20260830202045 | 86 | 287 | 1.0 | 4.0 | 0.00 | 0.00 | 0.00 | 64 | 1021.1 |
| 20260830201556 | 86 | 332 | 2.0 | 4.0 | 0.00 | 0.00 | 0.00 | 64 | 1021.1 |
| 20260830201045 | 85 | 0 | 1.0 | 5.0 | 0.00 | 0.00 | 0.00 | 63 | 1021.2 |
| 20260830200545 | 85 | 110 | 1.0 | 5.0 | 0.00 | 0.00 | 0.00 | 62 | 1021.3 |
| 20260830200108 | 85 | 107 | 1.0 | 5.0 | 0.00 | 0.00 | 0.00 | 67 | 1021.3 |
| 20260830195546 | 84 | 292 | 1.0 | 5.0 | 0.00 | 0.00 | 0.00 | 69 | 1021.4 |
| 20260830195045 | 84 | 209 | 2.0 | 5.0 | 0.00 | 0.00 | 0.00 | 66 | 1021.5 |
| 20260830194605 | 83 | 0 | 1.0 | 4.0 | 0.00 | 0.00 | 0.00 | 67 | 1021.6 |
| 20260830194045 | 82 | 196 | 1.0 | 2.0 | 0.00 | 0.00 | 0.00 | 70 | 1021.6 |
| 20260830193545 | 83 | 0 | 0.0 | 3.0 | 0.00 | 0.00 | 0.00 | 69 | 1021.7 |
| 20260830193100 | 83 | 0 | 0.0 | 3.0 | 0.00 | 0.00 | 0.00 | 66 | 1021.7 |
| 20260830192547 | 84 | 175 | 1.0 | 3.0 | 0.00 | 0.00 | 0.00 | 65 | 1021.7 |
| 20260830192048 | 84 | 88 | 0.0 | 4.0 | 0.00 | 0.00 | 0.00 | 65 | 1021.8 |
| 20260830191556 | 84 | 96 | 0.0 | 4.0 | 0.00 | 0.00 | 0.00 | 65 | 1021.8 |
| 20260830191047 | 84 | 57 | 1.0 | 6.0 | 0.00 | 0.00 | 0.00 | 67 | 1021.8 |
| 20260830190548 | 84 | 101 | 2.0 | 6.0 | 0.00 | 0.00 | 0.00 | 66 | 1021.8 |
| 20260830190055 | 84 | 107 | 2.0 | 6.0 | 0.00 | 0.00 | 0.00 | 65 | 1021.9 |
| 20260830185544 | 84 | 103 | 2.0 | 6.0 | 0.00 | 0.00 | 0.00 | 68 | 1022.0 |
| 20260830185045 | 85 | 296 | 1.0 | 6.0 | 0.00 | 0.00 | 0.00 | 65 | 1022.1 |
| 20260830184602 | 84 | 40 | 3.0 | 6.0 | 0.00 | 0.00 | 0.00 | 65 | 1022.1 |
| 20260830184046 | 85 | 207 | 2.0 | 6.0 | 0.00 | 0.00 | 0.00 | 64 | 1022.2 |
| 20260830183545 | 85 | 67 | 1.0 | 6.0 | 0.00 | 0.00 | 0.00 | 67 | 1022.4 |
| 20260830183058 | 84 | 42 | 0.0 | 5.0 | 0.00 | 0.00 | 0.00 | 69 | 1022.4 |
| 20260830182545 | 84 | 251 | 2.0 | 6.0 | 0.00 | 0.00 | 0.00 | 66 | 1022.5 |
| 20260830182046 | 84 | 19 | 1.0 | 7.0 | 0.00 | 0.00 | 0.00 | 66 | 1022.7 |
| 20260830181606 | 84 | 50 | 2.0 | 7.0 | 0.00 | 0.00 | 0.00 | 65 | 1022.8 |
| 20260830181046 | 84 | 337 | 2.0 | 6.0 | 0.00 | 0.00 | 0.00 | 68 | 1022.9 |
| 20260830180545 | 84 | 114 | 1.0 | 5.0 | 0.00 | 0.00 | 0.00 | 69 | 1022.9 |
| 20260830180121 | 84 | 48 | 2.0 | 5.0 | 0.00 | 0.00 | 0.00 | 67 | 1022.9 |
| 20260830175546 | 83 | 205 | 2.0 | 5.0 | 0.00 | 0.00 | 0.00 | 69 | 1023.0 |
| 20260830175047 | 83 | 42 | 2.0 | 5.0 | 0.00 | 0.00 | 0.00 | 68 | 1023.0 |
| 20260830174602 | 83 | 0 | 2.0 | 5.0 | 0.00 | 0.00 | 0.00 | 69 | 1023.1 |
| 20260830174045 | 83 | 99 | 1.0 | 6.0 | 0.00 | 0.00 | 0.00 | 68 | 1023.1 |
| 20260830173546 | 82 | 103 | 2.0 | 6.0 | 0.00 | 0.00 | 0.00 | 68 | 1023.2 |
| 20260830173106 | 82 | 0 | 2.0 | 4.0 | 0.00 | 0.00 | 0.00 | 70 | 1023.4 |
| 20260830172546 | 82 | 135 | 1.0 | 4.0 | 0.00 | 0.00 | 0.00 | 70 | 1023.5 |
| 20260830172045 | 82 | 0 | 0.0 | 4.0 | 0.00 | 0.00 | 0.00 | 71 | 1023.4 |
| 20260830171558 | 82 | 67 | 0.0 | 3.0 | 0.00 | 0.00 | 0.00 | 70 | 1023.5 |
| 20260830171046 | 83 | 109 | 1.0 | 3.0 | 0.00 | 0.00 | 0.00 | 71 | 1023.5 |
| 20260830170547 | 83 | 0 | 0.0 | 2.0 | 0.00 | 0.00 | 0.00 | 69 | 1023.6 |
| 20260830170108 | 82 | 5 | 0.0 | 3.0 | 0.00 | 0.00 | 0.00 | 71 | 1023.6 |
| 20260830165546 | 81 | 0 | 0.0 | 3.0 | 0.00 | 0.00 | 0.00 | 73 | 1023.7 |
| 20260830165047 | 80 | 0 | 0.0 | 4.0 | 0.00 | 0.00 | 0.00 | 75 | 1023.8 |
| 20260830164624 | 81 | 143 | 2.0 | 5.0 | 0.00 | 0.00 | 0.00 | 72 | 1023.8 |
| 20260830164045 | 81 | 146 | 2.0 | 5.0 | 0.00 | 0.00 | 0.00 | 73 | 1023.9 |
| 20260830163545 | 81 | 267 | 1.0 | 5.0 | 0.00 | 0.00 | 0.00 | 76 | 1023.9 |
| 20260830163055 | 81 | 246 | 1.0 | 5.0 | 0.00 | 0.00 | 0.00 | 73 | 1024.0 |
| 20260830162548 | 81 | 20 | 2.0 | 5.0 | 0.00 | 0.00 | 0.00 | 74 | 1024.1 |
| 20260830162047 | 80 | 302 | 2.0 | 5.0 | 0.00 | 0.00 | 0.00 | 74 | 1024.0 |
| 20260830161608 | 79 | 10 | 1.0 | 5.0 | 0.00 | 0.00 | 0.00 | 76 | 1024.2 |
| 20260830161046 | 79 | 66 | 3.0 | 5.0 | 0.00 | 0.00 | 0.00 | 75 | 1024.3 |
| 20260830160545 | 78 | 240 | 1.0 | 4.0 | 0.00 | 0.00 | 0.00 | 79 | 1024.3 |
| 20260830160106 | 79 | 315 | 1.0 | 4.0 | 0.00 | 0.00 | 0.00 | 76 | 1024.3 |
| 20260830155548 | 78 | 235 | 1.0 | 4.0 | 0.00 | 0.00 | 0.00 | 78 | 1024.3 |
| 20260830155045 | 78 | 167 | 0.0 | 4.0 | 0.00 | 0.00 | 0.00 | 80 | 1024.3 |
| 20260830154603 | 77 | 76 | 2.0 | 4.0 | 0.00 | 0.00 | 0.00 | 79 | 1024.3 |
| 20260830154045 | 77 | 67 | 0.0 | 4.0 | 0.00 | 0.00 | 0.00 | 80 | 1024.4 |
| 20260830153544 | 76 | 38 | 1.0 | 4.0 | 0.00 | 0.00 | 0.00 | 81 | 1024.4 |
| 20260830153058 | 76 | 106 | 1.0 | 4.0 | 0.00 | 0.00 | 0.00 | 81 | 1024.4 |
| 20260830152544 | 76 | 0 | 0.0 | 0.0 | 0.00 | 0.00 | 0.00 | 84 | 1024.4 |
| 20260830152044 | 75 | 0 | 0.0 | 0.0 | 0.00 | 0.00 | 0.00 | 83 | 1024.5 |
| 20260830151602 | 75 | 0 | 0.0 | 0.0 | 0.00 | 0.00 | 0.00 | 82 | 1024.5 |
| 20260830151048 | 75 | 0 | 0.0 | 0.0 | 0.00 | 0.00 | 0.00 | 83 | 1024.5 |
| 20260830150546 | 75 | 0 | 0.0 | 0.0 | 0.00 | 0.00 | 0.00 | 83 | 1024.5 |
| 20260830150055 | 75 | 0 | 0.0 | 1.0 | 0.00 | 0.00 | 0.00 | 84 | 1024.5 |
| 20260830145549 | 74 | 0 | 0.0 | 1.0 | 0.00 | 0.00 | 0.00 | 86 | 1024.5 |
| 20260830145047 | 74 | 173 | 0.0 | 1.0 | 0.00 | 0.00 | 0.00 | 86 | 1024.5 |
| 20260830144602 | 74 | 0 | 0.0 | 1.0 | 0.00 | 0.00 | 0.00 | 86 | 1024.5 |
| 20260830144045 | 74 | 0 | 0.0 | 2.0 | 0.00 | 0.00 | 0.00 | 87 | 1024.5 |
| 20260830143548 | 73 | 0 | 0.0 | 2.0 | 0.00 | 0.00 | 0.00 | 87 | 1024.4 |
| 20260830143103 | 73 | 271 | 1.0 | 3.0 | 0.00 | 0.00 | 0.00 | 87 | 1024.4 |
| 20260830142546 | 73 | 161 | 0.0 | 3.0 | 0.00 | 0.00 | 0.00 | 88 | 1024.4 |
| 20260830142045 | 73 | 177 | 0.0 | 3.0 | 0.00 | 0.00 | 0.00 | 88 | 1024.4 |
| 20260830141600 | 73 | 128 | 1.0 | 3.0 | 0.00 | 0.00 | 0.00 | 88 | 1024.5 |
| 20260830141046 | 73 | 0 | 0.0 | 2.0 | 0.00 | 0.00 | 0.00 | 89 | 1024.4 |
| 20260830140546 | 73 | 0 | 0.0 | 3.0 | 0.00 | 0.00 | 0.00 | 89 | 1024.4 |
| 20260830140053 | 72 | 0 | 0.0 | 3.0 | 0.00 | 0.00 | 0.00 | 91 | 1024.4 |
| 20260830135545 | 72 | 117 | 0.0 | 3.0 | 0.00 | 0.00 | 0.00 | 91 | 1024.5 |
| 20260830135045 | 72 | 0 | 0.0 | 2.0 | 0.00 | 0.00 | 0.00 | 93 | 1024.5 |
| 20260830134602 | 71 | 0 | 0.0 | 2.0 | 0.00 | 0.00 | 0.00 | 92 | 1024.6 |
| 20260830134045 | 71 | 0 | 0.0 | 0.0 | 0.00 | 0.00 | 0.00 | 94 | 1024.6 |
| 20260830133545 | 71 | 0 | 0.0 | 0.0 | 0.00 | 0.00 | 0.00 | 95 | 1024.5 |
| 20260830133106 | 71 | 0 | 0.0 | 0.0 | 0.00 | 0.00 | 0.00 | 95 | 1024.6 |
| 20260830132545 | 71 | 0 | 0.0 | 0.0 | 0.00 | 0.00 | 0.00 | 96 | 1024.7 |
| 20260830132046 | 70 | 0 | 0.0 | 0.0 | 0.00 | 0.00 | 0.00 | 96 | 1024.8 |
| 20260830131556 | 70 | 0 | 0.0 | 0.0 | 0.00 | 0.00 | 0.00 | 96 | 1024.6 |
| 20260830131045 | 70 | 0 | 0.0 | 0.0 | 0.00 | 0.00 | 0.00 | 96 | 1024.6 |
| 20260830130544 | 70 | 0 | 0.0 | 0.0 | 0.00 | 0.00 | 0.00 | 96 | 1024.6 |
| 20260830130056 | 70 | 0 | 0.0 | 0.0 | 0.00 | 0.00 | 0.00 | 97 | 1024.6 |
| 20260830125547 | 70 | 0 | 0.0 | 0.0 | 0.00 | 0.00 | 0.00 | 97 | 1024.6 |
| 20260830125045 | 70 | 0 | 0.0 | 0.0 | 0.00 | 0.00 | 0.00 | 96 | 1024.6 |
| 20260830124622 | 70 | 0 | 0.0 | 0.0 | 0.00 | 0.00 | 0.00 | 97 | 1024.5 |
| 20260830124045 | 70 | 0 | 0.0 | 0.0 | 0.00 | 0.00 | 0.00 | 97 | 1024.7 |
| 20260830123550 | 70 | 0 | 0.0 | 0.0 | 0.00 | 0.00 | 0.00 | 97 | 1024.5 |
| 20260830123103 | 70 | 0 | 0.0 | 0.0 | 0.00 | 0.00 | 0.00 | 97 | 1024.5 |
| 20260830122546 | 70 | 0 | 0.0 | 0.0 | 0.00 | 0.00 | 0.00 | 97 | 1024.5 |
| 20260830122045 | 70 | 0 | 0.0 | 1.0 | 0.00 | 0.00 | 0.00 | 97 | 1024.4 |
| 20260830121556 | 69 | 0 | 0.0 | 1.0 | 0.00 | 0.00 | 0.00 | 97 | 1024.4 |
| 20260830121048 | 69 | 0 | 0.0 | 0.0 | 0.00 | 0.00 | 0.00 | 97 | 1024.4 |
| 20260830120545 | 69 | 0 | 0.0 | 0.0 | 0.00 | 0.00 | 0.00 | 97 | 1024.4 |
| 20260830120057 | 69 | 0 | 0.0 | 0.0 | 0.00 | 0.00 | 0.00 | 97 | 1024.4 |
| 20260830115545 | 69 | 0 | 0.0 | 0.0 | 0.00 | 0.00 | 0.00 | 97 | 1024.3 |
| 20260830115044 | 69 | 0 | 0.0 | 0.0 | 0.00 | 0.00 | 0.00 | 97 | 1024.1 |
| 20260830114611 | 69 | 0 | 0.0 | 0.0 | 0.00 | 0.00 | 0.00 | 97 | 1024.1 |
| 20260830114044 | 69 | 0 | 0.0 | 0.0 | 0.00 | 0.00 | 0.00 | 97 | 1024.1 |
| 20260830113549 | 69 | 0 | 0.0 | 0.0 | 0.00 | 0.00 | 0.00 | 97 | 1024.1 |
| 20260830113059 | 69 | 0 | 0.0 | 0.0 | 0.00 | 0.00 | 0.00 | 97 | 1023.9 |
| 20260830112545 | 68 | 0 | 0.0 | 0.0 | 0.00 | 0.00 | 0.00 | 97 | 1024.0 |
| 20260830112048 | 68 | 0 | 0.0 | 0.0 | 0.00 | 0.00 | 0.00 | 97 | 1024.0 |
| 20260830111555 | 68 | 0 | 0.0 | 0.0 | 0.00 | 0.00 | 0.00 | 97 | 1023.8 |
| 20260830111048 | 68 | 0 | 0.0 | 0.0 | 0.00 | 0.00 | 0.00 | 97 | 1023.8 |
| 20260830110546 | 68 | 0 | 0.0 | 0.0 | 0.00 | 0.00 | 0.00 | 97 | 1023.7 |
| 20260830110054 | 67 | 0 | 0.0 | 0.0 | 0.00 | 0.00 | 0.00 | 97 | 1023.7 |
| 20260830105546 | 67 | 0 | 0.0 | 0.0 | 0.00 | 0.00 | 0.00 | 97 | 1023.6 |
| 20260830105046 | 67 | 0 | 0.0 | 0.0 | 0.00 | 0.00 | 0.00 | 97 | 1023.6 |
| 20260830104606 | 67 | 0 | 0.0 | 0.0 | 0.00 | 0.00 | 0.00 | 97 | 1023.5 |
| 20260830104046 | 68 | 0 | 0.0 | 0.0 | 0.00 | 0.00 | 0.00 | 97 | 1023.5 |
| 20260830103546 | 68 | 0 | 0.0 | 0.0 | 0.00 | 0.00 | 0.00 | 97 | 1023.5 |
| 20260830103057 | 68 | 0 | 0.0 | 0.0 | 0.00 | 0.00 | 0.00 | 97 | 1023.3 |
| 20260830102549 | 68 | 0 | 0.0 | 0.0 | 0.00 | 0.00 | 0.00 | 97 | 1023.3 |
| 20260830102045 | 68 | 0 | 0.0 | 0.0 | 0.00 | 0.00 | 0.00 | 97 | 1023.2 |
| 20260830101554 | 68 | 0 | 0.0 | 0.0 | 0.00 | 0.00 | 0.00 | 97 | 1023.2 |
| 20260830101045 | 68 | 0 | 0.0 | 0.0 | 0.00 | 0.00 | 0.00 | 97 | 1023.1 |
| 20260830100548 | 67 | 0 | 0.0 | 0.0 | 0.00 | 0.00 | 0.00 | 97 | 1023.1 |
| 20260830100054 | 67 | 0 | 0.0 | 0.0 | 0.00 | 0.00 | 0.00 | 97 | 1023.0 |
| 20260830095545 | 67 | 0 | 0.0 | 0.0 | 0.00 | 0.00 | 0.00 | 97 | 1023.0 |
| 20260830095046 | 67 | 0 | 0.0 | 0.0 | 0.00 | 0.00 | 0.00 | 97 | 1022.9 |
| 20260830094558 | 67 | 0 | 0.0 | 0.0 | 0.00 | 0.00 | 0.00 | 97 | 1022.9 |
| 20260830094045 | 67 | 0 | 0.0 | 0.0 | 0.00 | 0.00 | 0.00 | 97 | 1022.9 |
| 20260830093546 | 67 | 0 | 0.0 | 0.0 | 0.00 | 0.00 | 0.00 | 97 | 1023.0 |
| 20260830093056 | 67 | 0 | 0.0 | 0.0 | 0.00 | 0.00 | 0.00 | 97 | 1023.0 |
| 20260830092545 | 66 | 0 | 0.0 | 0.0 | 0.00 | 0.00 | 0.00 | 97 | 1022.9 |
| 20260830092045 | 66 | 0 | 0.0 | 0.0 | 0.00 | 0.00 | 0.00 | 96 | 1022.9 |
| 20260830091554 | 67 | 0 | 0.0 | 0.0 | 0.00 | 0.00 | 0.00 | 97 | 1022.9 |
| 20260830091048 | 67 | 0 | 0.0 | 0.0 | 0.00 | 0.00 | 0.00 | 96 | 1022.9 |
| 20260830090547 | 67 | 0 | 0.0 | 0.0 | 0.00 | 0.00 | 0.00 | 97 | 1022.8 |
| 20260830090111 | 67 | 0 | 0.0 | 0.0 | 0.00 | 0.00 | 0.00 | 97 | 1022.7 |
| 20260830085547 | 67 | 0 | 0.0 | 0.0 | 0.00 | 0.00 | 0.00 | 96 | 1022.8 |
| 20260830085048 | 67 | 0 | 0.0 | 0.0 | 0.00 | 0.00 | 0.00 | 96 | 1022.9 |
| 20260830084604 | 67 | 0 | 0.0 | 0.0 | 0.00 | 0.00 | 0.00 | 96 | 1022.8 |
| 20260830084045 | 67 | 0 | 0.0 | 0.0 | 0.00 | 0.00 | 0.00 | 96 | 1022.9 |
| 20260830083545 | 67 | 0 | 0.0 | 0.0 | 0.00 | 0.00 | 0.00 | 96 | 1022.9 |
| 20260830083147 | 67 | 0 | 0.0 | 0.0 | 0.00 | 0.00 | 0.00 | 97 | 1022.7 |
| 20260830082547 | 67 | 0 | 0.0 | 0.0 | 0.00 | 0.00 | 0.00 | 96 | 1022.8 |
| 20260830082045 | 67 | 0 | 0.0 | 0.0 | 0.00 | 0.00 | 0.00 | 96 | 1022.8 |
| 20260830081556 | 67 | 0 | 0.0 | 0.0 | 0.00 | 0.00 | 0.00 | 96 | 1022.8 |
| 20260830081045 | 67 | 0 | 0.0 | 0.0 | 0.00 | 0.00 | 0.00 | 96 | 1022.9 |
| 20260830080545 | 67 | 0 | 0.0 | 0.0 | 0.00 | 0.00 | 0.00 | 96 | 1022.9 |
| 20260830080054 | 67 | 0 | 0.0 | 0.0 | 0.00 | 0.00 | 0.00 | 96 | 1022.9 |
| 20260830075546 | 67 | 0 | 0.0 | 0.0 | 0.00 | 0.00 | 0.00 | 96 | 1023.0 |
| 20260830075048 | 67 | 0 | 0.0 | 0.0 | 0.00 | 0.00 | 0.00 | 96 | 1023.1 |
| 20260830074603 | 67 | 0 | 0.0 | 0.0 | 0.00 | 0.00 | 0.00 | 96 | 1023.1 |
| 20260830074049 | 67 | 0 | 0.0 | 0.0 | 0.00 | 0.00 | 0.00 | 96 | 1023.1 |
| 20260830073549 | 67 | 0 | 0.0 | 0.0 | 0.00 | 0.00 | 0.00 | 96 | 1023.2 |
| 20260830073109 | 67 | 0 | 0.0 | 0.0 | 0.00 | 0.00 | 0.00 | 96 | 1023.3 |
| 20260830072546 | 68 | 0 | 0.0 | 0.0 | 0.00 | 0.00 | 0.00 | 96 | 1023.2 |
| 20260830072046 | 68 | 0 | 0.0 | 0.0 | 0.00 | 0.00 | 0.00 | 96 | 1023.2 |
| 20260830071557 | 68 | 0 | 0.0 | 0.0 | 0.00 | 0.00 | 0.00 | 96 | 1023.1 |
| 20260830071047 | 68 | 0 | 0.0 | 0.0 | 0.00 | 0.00 | 0.00 | 96 | 1023.3 |
| 20260830070545 | 68 | 0 | 0.0 | 0.0 | 0.00 | 0.00 | 0.00 | 96 | 1023.3 |
| 20260830070109 | 68 | 0 | 0.0 | 0.0 | 0.00 | 0.00 | 0.00 | 96 | 1023.3 |
| 20260830065548 | 68 | 0 | 0.0 | 0.0 | 0.00 | 0.00 | 0.00 | 96 | 1023.3 |
| 20260830065046 | 68 | 0 | 0.0 | 0.0 | 0.00 | 0.00 | 0.00 | 96 | 1023.3 |
| 20260830064556 | 68 | 0 | 0.0 | 0.0 | 0.00 | 0.00 | 0.00 | 96 | 1023.3 |
| 20260830064048 | 68 | 0 | 0.0 | 0.0 | 0.00 | 0.00 | 0.00 | 96 | 1023.4 |
| 20260830063546 | 68 | 0 | 0.0 | 0.0 | 0.00 | 0.00 | 0.00 | 96 | 1023.4 |
| 20260830063054 | 68 | 0 | 0.0 | 0.0 | 0.00 | 0.00 | 0.00 | 95 | 1023.3 |
| 20260830062548 | 68 | 0 | 0.0 | 0.0 | 0.00 | 0.00 | 0.00 | 96 | 1023.3 |
| 20260830062049 | 68 | 0 | 0.0 | 0.0 | 0.00 | 0.00 | 0.00 | 96 | 1023.4 |
| 20260830061607 | 68 | 0 | 0.0 | 0.0 | 0.00 | 0.00 | 0.00 | 96 | 1023.4 |
| 20260830061045 | 68 | 0 | 0.0 | 0.0 | 0.00 | 0.00 | 0.00 | 95 | 1023.4 |
| 20260830060549 | 68 | 0 | 0.0 | 0.0 | 0.00 | 0.00 | 0.00 | 95 | 1023.5 |
| 20260830055547 | 69 | 0 | 0.0 | 0.0 | 0.00 | 0.00 | 0.00 | 95 | 1023.5 |
| 20260830055047 | 69 | 0 | 0.0 | 0.0 | 0.00 | 0.00 | 0.00 | 95 | 1023.5 |
| 20260830054604 | 69 | 0 | 0.0 | 0.0 | 0.00 | 0.00 | 0.00 | 95 | 1023.5 |
| 20260830054045 | 69 | 0 | 0.0 | 0.0 | 0.00 | 0.00 | 0.00 | 95 | 1023.5 |
| 20260830053546 | 69 | 0 | 0.0 | 0.0 | 0.00 | 0.00 | 0.00 | 95 | 1023.4 |
| 20260830053055 | 69 | 0 | 0.0 | 0.0 | 0.00 | 0.00 | 0.00 | 95 | 1023.6 |
| 20260830052545 | 69 | 0 | 0.0 | 0.0 | 0.00 | 0.00 | 0.00 | 95 | 1023.6 |
| 20260830052046 | 69 | 0 | 0.0 | 0.0 | 0.00 | 0.00 | 0.00 | 95 | 1023.7 |
| 20260830051558 | 70 | 0 | 0.0 | 0.0 | 0.00 | 0.00 | 0.00 | 95 | 1023.6 |
| 20260830051051 | 70 | 0 | 0.0 | 0.0 | 0.00 | 0.00 | 0.00 | 95 | 1023.7 |
| 20260830050546 | 70 | 0 | 0.0 | 0.0 | 0.00 | 0.00 | 0.00 | 95 | 1023.8 |
| 20260830050055 | 70 | 0 | 0.0 | 0.0 | 0.00 | 0.00 | 0.00 | 95 | 1023.8 |
| 20260830045545 | 70 | 0 | 0.0 | 0.0 | 0.00 | 0.00 | 0.00 | 94 | 1023.8 |
| 20260830045046 | 70 | 0 | 0.0 | 0.0 | 0.00 | 0.00 | 0.00 | 94 | 1023.8 |
| 20260830044603 | 70 | 0 | 0.0 | 0.0 | 0.00 | 0.00 | 0.00 | 94 | 1023.9 |
| 20260830044045 | 70 | 0 | 0.0 | 0.0 | 0.00 | 0.00 | 0.00 | 94 | 1023.9 |
| 20260830043548 | 70 | 0 | 0.0 | 0.0 | 0.00 | 0.00 | 0.00 | 94 | 1024.0 |
| 20260830043104 | 70 | 0 | 0.0 | 0.0 | 0.00 | 0.00 | 0.00 | 94 | 1024.0 |
| 20260830042548 | 70 | 0 | 0.0 | 0.0 | 0.00 | 0.00 | 0.00 | 94 | 1024.0 |
| 20260830042048 | 70 | 0 | 0.0 | 0.0 | 0.00 | 0.00 | 0.00 | 94 | 1024.0 |
| 20260830041607 | 71 | 0 | 0.0 | 0.0 | 0.00 | 0.00 | 0.00 | 94 | 1024.0 |
| 20260830041049 | 71 | 0 | 0.0 | 0.0 | 0.00 | 0.00 | 0.00 | 94 | 1024.0 |
| 20260830040545 | 71 | 0 | 0.0 | 0.0 | 0.00 | 0.00 | 0.00 | 93 | 1024.1 |
| 20260830040112 | 71 | 0 | 0.0 | 0.0 | 0.00 | 0.00 | 0.00 | 93 | 1024.0 |
| 20260830035546 | 71 | 0 | 0.0 | 0.0 | 0.00 | 0.00 | 0.00 | 93 | 1024.1 |
| 20260830035045 | 71 | 0 | 0.0 | 0.0 | 0.00 | 0.00 | 0.00 | 93 | 1024.1 |
| 20260830034602 | 71 | 0 | 0.0 | 0.0 | 0.00 | 0.00 | 0.00 | 93 | 1024.1 |
| 20260830034045 | 72 | 0 | 0.0 | 0.0 | 0.00 | 0.00 | 0.00 | 92 | 1024.0 |
| 20260830033545 | 72 | 0 | 0.0 | 0.0 | 0.00 | 0.00 | 0.00 | 92 | 1024.0 |
| 20260830033055 | 72 | 0 | 0.0 | 0.0 | 0.00 | 0.00 | 0.00 | 92 | 1023.8 |
| 20260830032545 | 72 | 0 | 0.0 | 0.0 | 0.00 | 0.00 | 0.00 | 91 | 1023.7 |
| 20260830032046 | 73 | 0 | 0.0 | 0.0 | 0.00 | 0.00 | 0.00 | 91 | 1023.8 |
| 20260830031557 | 73 | 0 | 0.0 | 0.0 | 0.00 | 0.00 | 0.00 | 91 | 1023.7 |
| 20260830031045 | 73 | 0 | 0.0 | 0.0 | 0.00 | 0.00 | 0.00 | 91 | 1023.6 |
| 20260830030548 | 73 | 0 | 0.0 | 0.0 | 0.00 | 0.00 | 0.00 | 91 | 1023.6 |
| 20260830030106 | 73 | 0 | 0.0 | 0.0 | 0.00 | 0.00 | 0.00 | 90 | 1023.6 |
| 20260830025546 | 73 | 0 | 0.0 | 2.0 | 0.00 | 0.00 | 0.00 | 90 | 1023.5 |
| 20260830025045 | 73 | 0 | 0.0 | 2.0 | 0.00 | 0.00 | 0.00 | 91 | 1023.5 |
| 20260830024600 | 73 | 226 | 0.0 | 1.0 | 0.00 | 0.00 | 0.00 | 91 | 1023.5 |
| 20260830024046 | 73 | 0 | 0.0 | 0.0 | 0.00 | 0.00 | 0.00 | 91 | 1023.4 |
| 20260830023547 | 72 | 0 | 0.0 | 0.0 | 0.00 | 0.00 | 0.00 | 91 | 1023.4 |
| 20260830023111 | 72 | 0 | 0.0 | 0.0 | 0.00 | 0.00 | 0.00 | 90 | 1023.3 |
| 20260830022544 | 73 | 0 | 0.0 | 0.0 | 0.00 | 0.00 | 0.00 | 90 | 1023.4 |
| 20260830022047 | 73 | 0 | 0.0 | 0.0 | 0.00 | 0.00 | 0.00 | 90 | 1023.3 |
| 20260830021602 | 73 | 0 | 0.0 | 0.0 | 0.00 | 0.00 | 0.00 | 90 | 1023.2 |
| 20260830021047 | 73 | 0 | 0.0 | 0.0 | 0.00 | 0.00 | 0.00 | 89 | 1023.1 |
| 20260830020548 | 73 | 0 | 0.0 | 2.0 | 0.00 | 0.00 | 0.00 | 89 | 1023.0 |
| 20260830020059 | 73 | 0 | 0.0 | 4.0 | 0.00 | 0.00 | 0.00 | 89 | 1023.1 |
| 20260830015546 | 73 | 265 | 0.0 | 4.0 | 0.00 | 0.00 | 0.00 | 89 | 1022.9 |
| 20260830015049 | 73 | 0 | 0.0 | 4.0 | 0.00 | 0.00 | 0.00 | 89 | 1022.8 |
| 20260830014556 | 73 | 235 | 0.0 | 2.0 | 0.00 | 0.00 | 0.00 | 89 | 1022.8 |
| 20260830014047 | 73 | 0 | 0.0 | 2.0 | 0.00 | 0.00 | 0.00 | 88 | 1022.6 |
| 20260830013548 | 73 | 0 | 0.0 | 2.0 | 0.00 | 0.00 | 0.00 | 88 | 1022.6 |
| 20260830013053 | 73 | 0 | 0.0 | 2.0 | 0.00 | 0.00 | 0.00 | 88 | 1022.6 |
| 20260830012545 | 73 | 233 | 0.0 | 0.0 | 0.00 | 0.00 | 0.00 | 87 | 1022.6 |
| 20260830012045 | 73 | 0 | 0.0 | 0.0 | 0.00 | 0.00 | 0.00 | 87 | 1022.5 |
| 20260830011603 | 74 | 0 | 0.0 | 2.0 | 0.00 | 0.00 | 0.00 | 87 | 1022.5 |
| 20260830011048 | 74 | 0 | 0.0 | 2.0 | 0.00 | 0.00 | 0.00 | 86 | 1022.5 |
| 20260830010546 | 74 | 216 | 0.0 | 4.0 | 0.00 | 0.00 | 0.00 | 86 | 1022.5 |
| 20260830010106 | 74 | 234 | 0.0 | 4.0 | 0.00 | 0.00 | 0.00 | 86 | 1022.6 |
| 20260830005547 | 74 | 250 | 1.0 | 4.0 | 0.00 | 0.00 | 0.00 | 86 | 1022.5 |
| 20260830005047 | 74 | 261 | 1.0 | 4.0 | 0.00 | 0.00 | 0.00 | 86 | 1022.4 |